[[{"header":{"parameterUnit":"m.s-1","parameterCategory":1,"la1":30.2992,"la2":30.254,"lo1":-89.0895,"lo2":-89.0443,"dy":0.0025,"dx":0.0025,"nx":19,"ny":19,"refTime":"2026-03-24T03:00:00:Z","depth":0,"parameterNumber":2,"parameterNumberName":"U-component_of_WINDS"},"data":[0,0,0,2.8055,2.8057,2.8177,2.8177,2.8339,2.8341,0,0,0,0,0,0,0,0,0,0,0,2.8021,2.8022,2.8055,2.8058,2.8177,2.8177,2.8339,2.8341,0,0,0,0,0,0,0,0,0,0,0,2.8021,2.8022,2.8024,2.8058,2.8176,2.8177,2.8338,2.8246,0,0,0,0,0,0,0,0,0,0,2.8129,2.8099,2.8022,2.8024,2.8059,2.8176,2.8177,2.8242,2.8252,2.8288,0,2.8317,0,2.8331,2.8352,2.8352,0,0,0,2.8057,2.809,2.812,2.8024,2.806,2.8176,2.8123,2.8247,2.8259,2.8302,2.8319,2.8325,2.8334,2.8353,2.8354,2.8556,2.8557,0,0,2.8051,2.8045,2.8112,2.8128,2.8106,2.8119,2.8126,2.8254,2.8274,2.832,2.8329,2.8337,2.8354,2.8355,2.8555,2.8556,0,0,0,2.8032,2.804,2.8067,2.8122,2.8142,2.8122,2.8131,2.8269,2.8278,2.8331,2.8338,2.8355,2.8357,2.8554,2.8555,2.8596,0,0,0,2.8028,2.8029,2.8064,2.8062,2.814,2.8206,2.8143,2.8269,2.8284,2.8338,2.8355,2.8358,2.8553,2.8555,2.8593,2.8617,0,0,0,2.8013,2.8027,2.8045,2.8061,2.8112,2.8204,2.8221,2.8272,2.8289,2.8352,2.8359,2.8552,2.8554,2.859,2.8612,2.8669,0,0,0,2.7996,2.808,2.8045,2.8143,2.8111,2.8227,2.822,2.8308,2.8367,2.8356,2.8553,2.8555,2.8589,2.8609,2.8666,2.8716,2.8736,0,0,2.8099,2.8092,2.8151,2.8123,2.8244,2.821,2.8339,2.84,2.8414,2.8509,2.8514,2.8594,2.8612,2.8669,2.885,2.8866,0,0,0,2.8181,2.8223,2.8256,2.8311,2.8359,2.8403,2.8445,2.8469,2.8549,2.846,2.863,2.8641,2.8675,2.8699,2.8713,2.8743,2.8566,2.8566,2.8565,2.8318,2.8329,2.8427,2.8453,2.8507,2.855,2.8596,2.8636,2.8632,2.8672,2.8701,2.8809,2.8837,2.8847,2.8878,2.8728,2.8728,2.8728,2.8728,2.8471,2.8532,2.8525,2.8617,2.863,2.8709,2.8755,2.875,2.8828,2.8788,2.8818,2.8774,2.8864,2.8892,2.8731,2.8731,2.873,2.873,2.873,2.8562,2.8594,2.862,2.8702,2.8765,2.879,2.8864,2.8874,2.8883,2.8913,2.8945,2.8945,2.8946,2.8928,2.8928,2.8929,2.8929,2.8929,2.8929,2.8647,2.8675,2.8735,2.8794,2.8831,2.8883,2.8929,2.8968,2.9013,2.9015,2.9015,2.9009,2.887,2.8835,2.8935,2.8934,2.8933,2.8933,2.8933,2.8798,2.8766,2.8858,2.8896,2.8968,2.9031,2.9042,2.9121,2.9155,2.9192,2.918,2.9075,2.907,2.9059,2.9031,2.9175,2.9175,2.9175,2.9175,2.8875,2.8873,2.8971,2.9031,2.9092,2.9112,2.922,2.9259,2.9293,2.9316,2.9297,2.9259,2.9248,2.925,2.9235,2.9209,2.9395,2.9396,2.9396,2.8969,2.8974,2.9062,2.9093,2.9151,2.9201,2.9304,2.9377,2.941,2.9405,2.9334,2.9325,2.9265,2.9245,2.9237,2.9214,2.9166,0,0]},{"header":{"parameterUnit":"m.s-1","parameterCategory":1,"la1":30.2992,"la2":30.254,"lo1":-89.0895,"lo2":-89.0443,"dy":0.0025,"dx":0.0025,"nx":19,"ny":19,"refTime":"2026-03-24T03:00:00:Z","depth":0,"parameterNumber":3,"parameterNumberName":"V-component_of_WINDS"},"data":[0,0,0,2.8095,2.8102,2.8473,2.8474,2.8944,2.8948,0,0,0,0,0,0,0,0,0,0,0,2.7984,2.7987,2.8094,2.8103,2.8473,2.8475,2.8943,2.8948,0,0,0,0,0,0,0,0,0,0,0,2.7983,2.7986,2.799,2.8105,2.8473,2.8475,2.8942,2.8664,0,0,0,0,0,0,0,0,0,0,2.8305,2.8203,2.7986,2.7991,2.8107,2.8472,2.8475,2.8651,2.8682,2.8775,0,2.8859,0,2.8911,2.898,2.8981,0,0,0,2.8104,2.8178,2.8278,2.7991,2.811,2.8472,2.8306,2.8668,2.8703,2.8816,2.8866,2.8883,2.8919,2.8983,2.8985,2.9517,2.9519,0,0,2.8084,2.8051,2.8254,2.83,2.8244,2.8295,2.8318,2.8689,2.8742,2.8867,2.8894,2.8926,2.8986,2.8989,2.9515,2.9518,0,0,0,2.8024,2.8037,2.8128,2.8281,2.8347,2.8305,2.8332,2.8725,2.8757,2.8899,2.8932,2.8988,2.8994,2.9512,2.9516,2.9602,0,0,0,2.8012,2.8002,2.8119,2.8102,2.8341,2.8542,2.836,2.8732,2.8775,2.8929,2.8989,2.8999,2.951,2.9514,2.9594,2.9648,0,0,0,2.796,2.7996,2.8049,2.81,2.8257,2.8536,2.859,2.8742,2.8795,2.8982,2.9,2.9508,2.9513,2.9587,2.9637,2.9775,0,0,0,2.7896,2.8125,2.805,2.8317,2.8254,2.8586,2.8588,2.8838,2.9009,2.8991,2.951,2.9516,2.9584,2.963,2.9767,2.9885,2.9931,0,0,2.8166,2.8156,2.8315,2.8259,2.8595,2.8533,2.8882,2.9071,2.9121,2.9381,2.9395,2.9596,2.9636,2.9774,3.0204,3.0241,0,0,0,2.8389,2.8503,2.8599,2.8758,2.8906,2.9035,2.9173,2.9242,2.9464,2.9248,2.9686,2.9711,2.9793,2.985,2.9881,2.9951,2.9541,2.9541,2.954,2.8725,2.8771,2.9036,2.9125,2.9279,2.9415,2.9543,2.9659,2.9666,2.9767,2.9845,3.0101,3.0167,3.019,3.0263,2.9912,2.9912,2.9913,2.9913,2.9122,2.9288,2.9284,2.9539,2.9585,2.9799,2.9937,2.9932,3.0137,3.0048,3.0122,3.0019,3.0229,3.0294,2.992,2.9919,2.9918,2.9917,2.9917,2.9346,2.9433,2.951,2.974,2.9911,2.9993,3.0187,3.0224,3.026,3.0334,3.0417,3.0415,3.0416,3.037,3.0371,3.0372,3.0373,3.0374,3.0374,2.9547,2.9631,2.979,2.996,3.0062,3.0203,3.0336,3.0439,3.0561,3.0572,3.0573,3.0564,3.0241,3.0157,3.0388,3.0386,3.0384,3.0383,3.0382,2.993,2.9847,3.0093,3.0196,3.0394,3.0558,3.06,3.0803,3.0893,3.0986,3.0961,3.0716,3.0709,3.0685,3.0616,3.0952,3.0952,3.0952,3.0952,3.0117,3.0115,3.0371,3.0531,3.0693,3.0753,3.1024,3.1128,3.1222,3.1279,3.1235,3.1147,3.112,3.113,3.1096,3.1031,3.1466,3.1466,3.1467,3.0353,3.0367,3.0593,3.0682,3.0838,3.0969,3.1224,3.1406,3.1496,3.1488,3.1323,3.1302,3.1159,3.1112,3.1102,3.1048,3.0931,0,0]}]]